FW1504 Weather Reports


time (UTC)temp
C
wind
direction
speed
KPH
gust
KPH
rain 1hr
cm
rain 24hr
cm
rain mn
cm
humidity
%
barometer
mb
20260906203034 38 191 0.0 11.3 0.00 0.00 0.00 34 1010.3
20260906201538 38 209 0.0 3.2 0.00 0.00 0.00 34 1010.5
20260906200030 38 181 1.6 8.0 0.00 0.00 0.00 34 1010.6
20260906194537 38 177 1.6 8.0 0.00 0.00 0.00 34 1010.9
20260906193025 38 184 0.0 6.4 0.00 0.00 0.00 36 1011.1
20260906191522 38 70 1.6 9.7 0.00 0.00 0.00 36 1011.4
20260906190018 37 82 0.0 6.4 0.00 0.00 0.00 40 1011.6
20260906184517 36 171 0.0 3.2 0.00 0.00 0.00 39 1011.7
20260906183025 37 126 0.0 19.3 0.00 0.00 0.00 37 1011.8
20260906181535 36 167 0.0 3.2 0.00 0.00 0.00 40 1012.1
20260906180011 36 182 1.6 11.3 0.00 0.00 0.00 40 1012.3
20260906174514 36 83 1.6 6.4 0.00 0.00 0.00 41 1012.6
20260906173008 36 67 0.0 6.4 0.00 0.00 0.00 42 1013.0
20260906171506 36 178 1.6 8.0 0.00 0.00 0.00 41 1013.3
20260906170014 36 194 0.0 4.8 0.00 0.00 0.00 42 1013.5
20260906164504 35 153 0.0 4.8 0.00 0.00 0.00 42 1013.5
20260906163002 35 188 0.0 6.4 0.00 0.00 0.00 44 1013.7
20260906161606 35 161 0.0 6.4 0.00 0.00 0.00 46 1013.7
20260906160055 34 217 0.0 4.8 0.00 0.00 0.00 47 1013.6
20260906154553 34 178 1.6 4.8 0.00 0.00 0.00 47 1013.6
20260906153049 33 187 0.0 3.2 0.00 0.00 0.00 50 1013.6
20260906151546 32 184 0.0 3.2 0.00 0.00 0.00 52 1013.4
20260906150042 32 181 0.0 4.8 0.00 0.00 0.00 53 1013.5
20260906144538 31 190 0.0 3.2 0.00 0.00 0.00 54 1013.4
20260906143034 31 167 0.0 1.6 0.00 0.00 0.00 55 1013.5
20260906141531 30 167 0.0 4.8 0.00 0.00 0.00 57 1013.4
20260906140026 29 171 0.0 4.8 0.00 0.00 0.00 59 1013.2
20260906134522 28 171 0.0 3.2 0.00 0.00 0.00 61 1013.1
20260906133017 27 360 0.0 3.2 0.00 0.00 0.00 64 1013.2
20260906131513 26 169 0.0 1.6 0.00 0.00 0.00 68 1013.1
20260906130008 25 169 0.0 0.0 0.00 0.00 0.00 71 1012.9
20260906124507 24 169 0.0 0.0 0.00 0.00 0.00 72 1012.8
20260906123101 24 169 0.0 1.6 0.00 0.00 0.00 72 1012.7
20260906121607 24 169 0.0 0.0 0.00 0.00 0.00 71 1012.5
20260906120054 25 169 0.0 0.0 0.00 0.00 0.00 71 1012.2
20260906114607 25 169 0.0 0.0 0.00 0.00 0.00 69 1012.1
20260906113103 25 169 0.0 1.6 0.00 0.00 0.00 67 1012.0
20260906111549 25 169 0.0 3.2 0.00 0.00 0.00 68 1011.9
20260906110049 25 169 0.0 0.0 0.00 0.00 0.00 68 1011.8
20260906104549 25 169 0.0 1.6 0.00 0.00 0.00 70 1011.8
20260906103048 25 170 0.0 0.0 0.00 0.00 0.00 70 1011.7
20260906101547 25 360 0.0 0.0 0.00 0.00 0.00 70 1011.6
20260906100044 25 360 0.0 0.0 0.00 0.00 0.00 68 1011.5
20260906094549 25 170 0.0 0.0 0.00 0.00 0.00 66 1011.6
20260906093041 25 360 0.0 0.0 0.00 0.00 0.00 64 1011.4
20260906091543 26 170 0.0 0.0 0.00 0.00 0.00 64 1011.5
20260906090037 26 171 0.0 0.0 0.00 0.00 0.00 62 1011.4
20260906084536 26 170 0.0 1.6 0.00 0.00 0.00 62 1011.2
20260906083035 26 170 0.0 1.6 0.00 0.00 0.00 62 1011.2
20260906081539 26 170 0.0 0.0 0.00 0.00 0.00 62 1011.2
20260906080034 27 360 0.0 0.0 0.00 0.00 0.00 60 1011.3
20260906074530 27 360 0.0 0.0 0.00 0.00 0.00 61 1011.2
20260906073028 27 360 0.0 0.0 0.00 0.00 0.00 60 1011.0
20260906071526 27 175 0.0 0.0 0.00 0.00 0.00 58 1011.0
20260906070023 27 169 0.0 0.0 0.00 0.00 0.00 56 1011.1
20260906064526 28 360 0.0 0.0 0.00 0.00 0.00 55 1011.0
20260906063018 28 170 0.0 0.0 0.00 0.00 0.00 54 1011.0
20260906061515 28 171 0.0 0.0 0.00 0.00 0.00 52 1011.0
20260906060013 29 170 0.0 0.0 0.00 0.00 0.00 51 1011.1
20260906054510 30 170 0.0 1.6 0.00 0.00 0.00 50 1010.8
20260906053008 30 169 0.0 3.2 0.00 0.00 0.00 49 1010.7
20260906051508 30 177 0.0 3.2 0.00 0.00 0.00 49 1010.8
20260906050010 30 160 0.0 4.8 0.00 0.00 0.00 48 1010.7
20260906044502 31 182 0.0 3.2 0.00 0.00 0.00 47 1010.7
20260906043003 31 173 0.0 3.2 0.00 0.00 0.00 46 1010.8
20260906041503 31 171 0.0 4.8 0.00 0.00 0.00 46 1010.8
20260906040100 32 163 0.0 4.8 0.00 0.00 0.00 45 1010.8
20260906034602 32 187 0.0 4.8 0.00 0.00 0.00 46 1010.8
20260906034501 32 188 0.0 4.8 0.00 0.00 0.00 45 1010.8
20260906033101 31 175 0.0 4.8 0.00 0.00 0.00 46 1010.8
20260906031624 31 156 0.0 3.2 0.00 0.00 0.00 46 1010.7
20260906030058 32 157 0.0 1.6 0.00 0.00 0.00 45 1010.7
20260906024603 32 151 0.0 0.0 0.00 0.00 0.00 44 1010.7
20260906023110 32 132 0.0 3.2 0.00 0.00 0.00 44 1010.7
20260906021557 32 132 0.0 3.2 0.00 0.00 0.00 44 1010.4
20260906020100 32 132 0.0 3.2 0.00 0.00 0.00 43 1010.3
20260906014556 33 132 0.0 1.6 0.00 0.00 0.00 42 1010.2
20260906013056 33 132 0.0 1.6 0.00 0.00 0.00 41 1009.9
20260906011603 34 360 0.0 0.0 0.00 0.00 0.00 41 1009.7
20260906010054 35 132 0.0 3.2 0.00 0.00 0.00 38 1009.7
20260906004559 35 131 0.0 3.2 0.00 0.00 0.00 38 1009.4
20260906003054 35 140 0.0 6.4 0.00 0.00 0.00 37 1009.4
20260906001552 36 128 0.0 6.4 0.00 0.00 0.00 36 1009.6
20260906000059 36 139 0.0 9.7 0.00 0.00 0.00 36 1009.3
20260905234554 37 94 0.0 9.7 0.00 0.00 0.00 36 1009.0
20260905233053 37 152 1.6 6.4 0.00 0.00 0.00 36 1008.9
20260905231551 37 127 0.0 6.4 0.00 0.00 0.00 36 1008.9
20260905230048 37 198 3.2 9.7 0.00 0.00 0.00 35 1008.9
20260905224548 37 190 1.6 11.3 0.00 0.00 0.00 34 1008.9
20260905223047 37 61 3.2 8.0 0.00 0.00 0.00 35 1008.8
20260905221600 38 178 1.6 12.9 0.00 0.00 0.00 34 1008.9
20260905220045 38 177 3.2 11.3 0.00 0.00 0.00 34 1009.0
20260905214542 38 122 0.0 4.8 0.00 0.00 0.00 34 1009.0
20260905213041 38 246 0.0 9.7 0.00 0.00 0.00 35 1009.3
20260905211539 38 163 4.8 11.3 0.00 0.00 0.00 34 1009.5
20260905210037 38 184 3.2 9.7 0.00 0.00 0.00 34 1009.7
20260905204538 38 128 1.6 8.0 0.00 0.00 0.00 36 1010.0